Location: Seven Kings
(51.5667°N, 0.1000°E)
Time: 02:24:41
(UTC+00:00)

Cosmos 1726 Rocket - Pass Details

Date: 29 October 2020
Orbit: 603 x 629 km, 82.5° (Epoch: 27 November)

Event Time Altitude Azimuth Distance (km) Brightness Sun altitude
Rises 17:24:12 0° 179° (S) 2,862 7.1 -7.8°
Reaches altitude 10° 17:26:25 10° 176° (S) 1,966 6.2 -8.2°
Maximum altitude 17:30:42 62° 97° (E) 700 3.6 -8.8°
Drops below altitude 10° 17:35:04 10° 16° (NNE) 1,999 5.9 -9.5°
Sets 17:37:20 0° 14° (NNE) 2,914 6.8 -9.8°
